This is the latest recevied weather packets stored in our database for station/object AC5CM. If no packets are shown the sender has not sent any weather packets the latest 10 day(s).
| Time | Temp. | Humidity | Pressure | Rain* | Wind** | Luminosity | Snow |
|---|---|---|---|---|---|---|---|
| 1777903581 | 22.78° C | 65% | 1016.7 hPa | 0 mm | - | - | - |
| 1777903277 | 22.22° C | 68% | 1016.9 hPa | 0 mm | - | - | - |
| 1777902974 | 21.67° C | 67% | 1016.8 hPa | 0 mm | - | - | - |
| 1777902670 | 21.67° C | 70% | 1016.8 hPa | 0 mm | - | - | - |
| 1777902368 | 21.67° C | 68% | 1017 hPa | 0 mm | - | - | - |
| 1777902064 | 21.67° C | 70% | 1017 hPa | 0 mm | - | - | - |
| 1777901763 | 21.11° C | 69% | 1017.2 hPa | 0 mm | - | - | - |
| 1777901459 | 20.56° C | 72% | 1017 hPa | 0 mm | - | - | - |
| 1777901157 | 20° C | 74% | 1017 hPa | 0 mm | - | - | - |
| 1777900855 | 20° C | 74% | 1016.9 hPa | 0 mm | - | - | - |
| 1777900552 | 19.44° C | 75% | 1016.7 hPa | 0 mm | - | - | - |
| 1777900249 | 18.89° C | 75% | 1016.9 hPa | 0 mm | - | - | - |
| 1777899945 | 18.33° C | 78% | 1016.8 hPa | 0 mm | - | - | - |
| 1777899642 | 17.78° C | 79% | 1016.6 hPa | 0 mm | - | - | - |
| 1777899340 | 17.22° C | 81% | 1016.6 hPa | 0 mm | - | - | - |
| 1777899037 | 16.67° C | 84% | 1016.7 hPa | 0 mm | - | - | - |
| 1777898734 | 15.56° C | 86% | 1016.8 hPa | 0 mm | - | - | - |
| 1777898431 | 15.56° C | 89% | 1017 hPa | 0 mm | - | - | - |
| 1777898129 | 15° C | 89% | 1016.9 hPa | 0 mm | - | - | - |
| 1777897826 | 14.44° C | 91% | 1016.9 hPa | 0 mm | - | - | - |
| 1777897522 | 14.44° C | 93% | 1016.9 hPa | 0 mm | - | - | - |
| 1777897217 | 13.89° C | 94% | 1016.6 hPa | 0 mm | - | - | - |
| 1777896914 | 13.33° C | 94% | 1016.9 hPa | 0 mm | - | - | - |
| 1777896611 | 13.33° C | 94% | 1016.5 hPa | 0 mm | - | - | - |
| 1777896308 | 13.33° C | 94% | 1016.6 hPa | 0 mm | - | - | - |
* Rain latest hour (hover to see other rain measurements)
** Current wind speed in m/s (hover to see current wind gust speed)